Year,Month,Day,Hour,Minute,Value (Times are PST for temperature in C)
2013,04,26,00,02,10.40
2013,04,26,00,04,10.30
2013,04,26,00,05,10.30
2013,04,26,00,06,10.30
2013,04,26,00,08,10.30
2013,04,26,00,09,10.20
2013,04,26,00,10,10.20
2013,04,26,00,11,10.20
2013,04,26,00,12,10.20
2013,04,26,00,13,10.20
2013,04,26,00,14,10.10
2013,04,26,00,15,10.10
2013,04,26,00,17,10.10
2013,04,26,00,18,10.00
2013,04,26,00,19,9.90
2013,04,26,00,21,9.90
2013,04,26,00,22,9.90
2013,04,26,00,23,9.90
2013,04,26,00,24,9.90
2013,04,26,00,26,9.80
2013,04,26,00,27,9.80
2013,04,26,00,28,9.80
2013,04,26,00,30,9.80
2013,04,26,00,31,9.80
2013,04,26,00,32,9.70
2013,04,26,00,33,9.70
2013,04,26,00,34,9.70
2013,04,26,00,36,9.70
2013,04,26,00,37,9.70
2013,04,26,00,38,9.60
2013,04,26,00,39,9.60
2013,04,26,00,41,9.60
2013,04,26,00,42,9.50
2013,04,26,00,43,9.40
2013,04,26,00,44,9.40
2013,04,26,00,46,9.40
2013,04,26,00,47,9.30
2013,04,26,00,48,9.30
2013,04,26,00,50,9.30
2013,04,26,00,51,9.30
2013,04,26,00,52,9.30
2013,04,26,00,53,9.20
2013,04,26,00,55,9.20
2013,04,26,00,56,9.20
2013,04,26,00,57,9.20
2013,04,26,00,59,9.20
2013,04,26,01,00,9.20
2013,04,26,01,01,9.10
2013,04,26,01,02,9.10
2013,04,26,01,06,9.10
2013,04,26,01,07,9.00
2013,04,26,01,10,8.90
2013,04,26,01,11,8.90
2013,04,26,01,12,8.90
2013,04,26,01,14,8.80
2013,04,26,01,15,8.80
2013,04,26,01,16,8.80
2013,04,26,01,17,8.80
2013,04,26,01,18,8.80
2013,04,26,01,20,8.80
2013,04,26,01,21,8.70
2013,04,26,01,22,8.70
2013,04,26,01,23,8.70
2013,04,26,01,25,8.70
2013,04,26,01,26,8.70
2013,04,26,01,27,8.70
2013,04,26,01,28,8.70
2013,04,26,01,29,8.70
2013,04,26,01,30,8.70
2013,04,26,01,31,8.70
2013,04,26,01,33,8.70
2013,04,26,01,34,8.70
2013,04,26,01,35,8.70
2013,04,26,01,36,8.70
2013,04,26,01,37,8.70
2013,04,26,01,38,8.70
2013,04,26,01,39,8.70
2013,04,26,01,40,8.70
2013,04,26,01,41,8.70
2013,04,26,01,43,8.70
2013,04,26,01,44,8.70
2013,04,26,01,45,8.70
2013,04,26,01,46,8.70
2013,04,26,01,47,8.70
2013,04,26,01,48,8.70
2013,04,26,01,49,8.70
2013,04,26,01,50,8.70
2013,04,26,01,51,8.70
2013,04,26,01,52,8.70
2013,04,26,01,53,8.70
2013,04,26,01,54,8.70
2013,04,26,01,55,8.70
2013,04,26,01,56,8.70
2013,04,26,01,57,8.70
2013,04,26,01,58,8.70
2013,04,26,01,59,8.70
2013,04,26,02,00,8.80
2013,04,26,02,01,8.80
2013,04,26,02,02,8.70
2013,04,26,02,03,8.70
2013,04,26,02,04,8.70
2013,04,26,02,05,8.70
2013,04,26,02,06,8.80
2013,04,26,02,07,8.70
2013,04,26,02,08,8.70
2013,04,26,02,09,8.70
2013,04,26,02,10,8.70
2013,04,26,02,11,8.70
2013,04,26,02,12,8.70
2013,04,26,02,13,8.70
2013,04,26,02,14,8.70
2013,04,26,02,15,8.70
2013,04,26,02,17,8.70
2013,04,26,02,18,8.70
2013,04,26,02,19,8.70
2013,04,26,02,20,8.70
2013,04,26,02,21,8.70
2013,04,26,02,22,8.60
2013,04,26,02,23,8.70
2013,04,26,02,24,8.60
2013,04,26,02,26,8.60
2013,04,26,02,27,8.60
2013,04,26,02,28,8.60
2013,04,26,02,30,8.60
2013,04,26,02,31,8.60
2013,04,26,02,32,8.60
2013,04,26,02,33,8.50
2013,04,26,02,35,8.50
2013,04,26,02,36,8.50
2013,04,26,02,37,8.50
2013,04,26,02,38,8.40
2013,04,26,02,39,8.40
2013,04,26,02,40,8.40
2013,04,26,02,41,8.40
2013,04,26,02,42,8.40
2013,04,26,02,43,8.30
2013,04,26,02,44,8.30
2013,04,26,02,45,8.30
2013,04,26,02,46,8.30
2013,04,26,02,48,8.30
2013,04,26,02,49,8.30
2013,04,26,02,50,8.30
2013,04,26,02,51,8.30
2013,04,26,02,52,8.30
2013,04,26,02,53,8.30
2013,04,26,02,54,8.30
2013,04,26,02,55,8.30
2013,04,26,02,56,8.30
2013,04,26,02,58,8.30
2013,04,26,02,59,8.40
2013,04,26,03,00,8.40
2013,04,26,03,01,8.40
2013,04,26,03,02,8.40
2013,04,26,03,04,8.40
2013,04,26,03,05,8.40
2013,04,26,03,06,8.30
2013,04,26,03,07,8.30
2013,04,26,03,09,8.30
2013,04,26,03,10,8.30
2013,04,26,03,11,8.30
2013,04,26,03,12,8.30
2013,04,26,03,14,8.30
2013,04,26,03,15,8.30
2013,04,26,03,16,8.30
2013,04,26,03,17,8.30
2013,04,26,03,19,8.30
2013,04,26,03,20,8.30
2013,04,26,03,21,8.30
2013,04,26,03,22,8.20
2013,04,26,03,23,8.20
2013,04,26,03,25,8.30
2013,04,26,03,26,8.20
2013,04,26,03,27,8.20
2013,04,26,03,28,8.20
2013,04,26,03,29,8.20
2013,04,26,03,31,8.20
2013,04,26,03,32,8.30
2013,04,26,03,33,8.30
2013,04,26,03,34,8.30
2013,04,26,03,36,8.30
2013,04,26,03,37,8.30
2013,04,26,03,38,8.30
2013,04,26,03,40,8.30
2013,04,26,03,41,8.30
2013,04,26,03,42,8.30
2013,04,26,03,44,8.30
2013,04,26,03,45,8.30
2013,04,26,03,46,8.20
2013,04,26,03,47,8.20
2013,04,26,03,49,8.20
2013,04,26,03,50,8.20
2013,04,26,03,51,8.20
2013,04,26,03,52,8.20
2013,04,26,03,53,8.20
2013,04,26,03,55,8.30
2013,04,26,03,56,8.30
2013,04,26,03,57,8.30
2013,04,26,03,58,8.30
2013,04,26,04,00,8.30
2013,04,26,04,01,8.30
2013,04,26,04,02,8.30
2013,04,26,04,03,8.30
2013,04,26,04,05,8.30
2013,04,26,04,06,8.30
2013,04,26,04,07,8.30
2013,04,26,04,09,8.20
2013,04,26,04,10,8.20
2013,04,26,04,11,8.20
2013,04,26,04,12,8.20
2013,04,26,04,14,8.20
2013,04,26,04,15,8.20
2013,04,26,04,16,8.20
2013,04,26,04,17,8.10
2013,04,26,04,19,8.20
2013,04,26,04,20,8.10
2013,04,26,04,21,8.10
2013,04,26,04,22,8.10
2013,04,26,04,23,8.20
2013,04,26,04,24,8.20
2013,04,26,04,25,8.20
2013,04,26,04,26,8.20
2013,04,26,04,28,8.20
2013,04,26,04,29,8.20
2013,04,26,04,30,8.20
2013,04,26,04,31,8.30
2013,04,26,04,32,8.30
2013,04,26,04,33,8.30
2013,04,26,04,34,8.30
2013,04,26,04,35,8.30
2013,04,26,04,36,8.30
2013,04,26,04,37,8.30
2013,04,26,04,38,8.30
2013,04,26,04,39,8.30
2013,04,26,04,40,8.40
2013,04,26,04,41,8.40
2013,04,26,04,42,8.40
2013,04,26,04,43,8.40
2013,04,26,04,44,8.40
2013,04,26,04,45,8.40
2013,04,26,04,46,8.40
2013,04,26,04,48,8.50
2013,04,26,04,49,8.50
2013,04,26,04,50,8.50
2013,04,26,04,51,8.60
2013,04,26,04,52,8.60
2013,04,26,04,53,8.60
2013,04,26,04,54,8.60
2013,04,26,04,55,8.60
2013,04,26,04,56,8.60
2013,04,26,04,58,8.60
2013,04,26,04,59,8.60
2013,04,26,05,00,8.60
2013,04,26,05,01,8.60
2013,04,26,05,02,8.60
2013,04,26,05,03,8.60
2013,04,26,05,04,8.60
2013,04,26,05,05,8.60
2013,04,26,05,06,8.60
2013,04,26,05,07,8.60
2013,04,26,05,08,8.60
2013,04,26,05,09,8.50
2013,04,26,05,10,8.50
2013,04,26,05,11,8.40
2013,04,26,05,13,8.40
2013,04,26,05,14,8.40
2013,04,26,05,15,8.40
2013,04,26,05,16,8.30
2013,04,26,05,17,8.30
2013,04,26,05,18,8.30
2013,04,26,05,19,8.30
2013,04,26,05,20,8.30
2013,04,26,05,22,8.30
2013,04,26,05,23,8.30
2013,04,26,05,24,8.30
2013,04,26,05,25,8.30
2013,04,26,05,26,8.30
2013,04,26,05,27,8.30
2013,04,26,05,28,8.20
2013,04,26,05,29,8.20
2013,04,26,05,30,8.20
2013,04,26,05,31,8.20
2013,04,26,05,33,8.20
2013,04,26,05,34,8.20
2013,04,26,05,35,8.20
2013,04,26,05,37,8.20
2013,04,26,05,38,8.20
2013,04,26,05,39,8.10
2013,04,26,05,40,8.10
2013,04,26,05,42,8.10
2013,04,26,05,43,8.10
2013,04,26,05,44,8.10
2013,04,26,05,45,8.00
2013,04,26,05,46,8.00
2013,04,26,05,48,7.90
2013,04,26,05,49,7.90
2013,04,26,05,50,7.90
2013,04,26,05,52,7.90
2013,04,26,05,53,7.90
2013,04,26,05,54,7.90
2013,04,26,05,55,7.90
2013,04,26,05,56,7.80
2013,04,26,05,57,7.80
2013,04,26,05,58,7.80
2013,04,26,06,00,7.80
2013,04,26,06,01,7.80
2013,04,26,06,02,7.80
2013,04,26,06,03,7.80
2013,04,26,06,05,7.80
2013,04,26,06,06,7.80
2013,04,26,06,07,7.80
2013,04,26,06,09,7.80
2013,04,26,06,10,7.70
2013,04,26,06,11,7.70
2013,04,26,06,12,7.70
2013,04,26,06,14,7.70
2013,04,26,06,15,7.70
2013,04,26,06,16,7.70
2013,04,26,06,18,7.70
2013,04,26,06,19,7.70
2013,04,26,06,20,7.70
2013,04,26,06,21,7.70
2013,04,26,06,22,7.70
2013,04,26,06,23,7.70
2013,04,26,06,24,7.70
2013,04,26,06,26,7.70
2013,04,26,06,27,7.60
2013,04,26,06,28,7.60
2013,04,26,06,29,7.60
2013,04,26,06,31,7.60
2013,04,26,06,32,7.60
2013,04,26,06,33,7.60
2013,04,26,06,35,7.60
2013,04,26,06,36,7.60
2013,04,26,06,37,7.60
2013,04,26,06,38,7.60
2013,04,26,06,39,7.60
2013,04,26,06,41,7.60
2013,04,26,06,42,7.60
2013,04,26,06,43,7.60
2013,04,26,06,45,7.60
2013,04,26,06,46,7.60
2013,04,26,06,47,7.60
2013,04,26,06,48,7.50
2013,04,26,06,49,7.50
2013,04,26,06,50,7.50
2013,04,26,06,51,7.50
2013,04,26,06,52,7.50
2013,04,26,06,53,7.50
2013,04,26,06,54,7.50
2013,04,26,06,55,7.50
2013,04,26,06,56,7.50
2013,04,26,06,57,7.50
2013,04,26,06,58,7.50
2013,04,26,07,00,7.50
2013,04,26,07,01,7.40
2013,04,26,07,02,7.50
2013,04,26,07,03,7.50
2013,04,26,07,04,7.50
2013,04,26,07,06,7.60
2013,04,26,07,07,7.60
2013,04,26,07,08,7.60
2013,04,26,07,09,7.60
2013,04,26,07,11,7.60
2013,04,26,07,12,7.60
2013,04,26,07,13,7.60
2013,04,26,07,14,7.70
2013,04,26,07,15,7.70
2013,04,26,07,17,7.70
2013,04,26,07,18,7.70
2013,04,26,07,19,7.80
2013,04,26,07,20,7.80
2013,04,26,07,21,7.80
2013,04,26,07,22,7.80
2013,04,26,07,24,7.80
2013,04,26,07,25,7.80
2013,04,26,07,26,7.90
2013,04,26,07,27,7.90
2013,04,26,07,29,7.90
2013,04,26,07,30,7.90
2013,04,26,07,31,8.00
2013,04,26,07,32,8.10
2013,04,26,07,33,8.10
2013,04,26,07,35,8.10
2013,04,26,07,36,8.10
2013,04,26,07,37,8.10
2013,04,26,07,38,8.20
2013,04,26,07,40,8.20
2013,04,26,07,41,8.20
2013,04,26,07,42,8.20
2013,04,26,07,43,8.20
2013,04,26,07,44,8.20
2013,04,26,07,45,8.30
2013,04,26,07,46,8.30
2013,04,26,07,48,8.30
2013,04,26,07,49,8.30
2013,04,26,07,50,8.40
2013,04,26,07,51,8.40
2013,04,26,07,52,8.40
2013,04,26,07,53,8.40
2013,04,26,07,54,8.50
2013,04,26,07,55,8.50
2013,04,26,07,57,8.60
2013,04,26,07,58,8.60
2013,04,26,07,59,8.60
2013,04,26,08,00,8.60
2013,04,26,08,01,8.60
2013,04,26,08,02,8.60
2013,04,26,08,03,8.70
2013,04,26,08,04,8.70
2013,04,26,08,06,8.70
2013,04,26,08,07,8.80
2013,04,26,08,08,8.80
2013,04,26,08,09,8.80
2013,04,26,08,10,8.80
2013,04,26,08,11,8.80
2013,04,26,08,12,8.80
2013,04,26,08,13,8.80
2013,04,26,08,14,8.90
2013,04,26,08,16,8.90
2013,04,26,08,17,9.00
2013,04,26,08,18,9.00
2013,04,26,08,20,9.00
2013,04,26,08,21,9.10
2013,04,26,08,22,9.10
2013,04,26,08,23,9.10
2013,04,26,08,24,9.20
2013,04,26,08,25,9.20
2013,04,26,08,26,9.20
2013,04,26,08,28,9.30
2013,04,26,08,29,9.30
2013,04,26,08,30,9.20
2013,04,26,08,31,9.20
2013,04,26,08,32,9.20
2013,04,26,08,33,9.20
2013,04,26,08,34,9.20
2013,04,26,08,35,9.30
2013,04,26,08,37,9.30
2013,04,26,08,38,9.30
2013,04,26,08,39,9.30
2013,04,26,08,40,9.30
2013,04,26,08,42,9.20
2013,04,26,08,43,9.20
2013,04,26,08,44,9.20
2013,04,26,08,46,9.20
2013,04,26,08,47,9.20
2013,04,26,08,48,9.10
2013,04,26,08,49,9.10
2013,04,26,08,51,9.10
2013,04,26,08,52,9.10
2013,04,26,08,53,9.10
2013,04,26,08,54,9.20
2013,04,26,08,56,9.20
2013,04,26,08,57,9.20
2013,04,26,08,58,9.30
2013,04,26,08,59,9.20
2013,04,26,09,01,9.20
2013,04,26,09,02,9.20
2013,04,26,09,03,9.30
2013,04,26,09,05,9.40
2013,04,26,09,06,9.40
2013,04,26,09,07,9.40
2013,04,26,09,08,9.60
2013,04,26,09,09,9.60
2013,04,26,09,10,9.70
2013,04,26,09,11,9.70
2013,04,26,09,12,9.70
2013,04,26,09,13,9.70
2013,04,26,09,14,9.70
2013,04,26,09,16,9.70
2013,04,26,09,17,9.70
2013,04,26,09,18,9.70
2013,04,26,09,19,9.70
2013,04,26,09,20,9.70
2013,04,26,09,21,9.70
2013,04,26,09,22,9.70
2013,04,26,09,23,9.80
2013,04,26,09,24,9.80
2013,04,26,09,25,9.80
2013,04,26,09,26,9.80
2013,04,26,09,27,9.90
2013,04,26,09,28,9.90
2013,04,26,09,30,9.90
2013,04,26,09,31,10.10
2013,04,26,09,32,10.10
2013,04,26,09,33,10.10
2013,04,26,09,35,10.10
2013,04,26,09,36,10.10
2013,04,26,09,37,10.10
2013,04,26,09,38,10.10
2013,04,26,09,39,10.20
2013,04,26,09,41,10.20
2013,04,26,09,42,10.10
2013,04,26,09,43,10.10
2013,04,26,09,44,10.10
2013,04,26,09,45,10.10
2013,04,26,09,46,10.00
2013,04,26,09,47,10.00
2013,04,26,09,48,10.00
2013,04,26,09,50,9.90
2013,04,26,09,51,9.80
2013,04,26,09,52,9.80
2013,04,26,09,53,9.80
2013,04,26,09,55,9.80
2013,04,26,09,56,9.80
2013,04,26,09,57,9.80
2013,04,26,09,58,9.80
2013,04,26,09,59,9.80
2013,04,26,10,00,9.80
2013,04,26,10,01,9.80
2013,04,26,10,02,9.80
2013,04,26,10,04,9.90
2013,04,26,10,05,9.90
2013,04,26,10,06,9.90
2013,04,26,10,07,10.00
2013,04,26,10,09,10.10
2013,04,26,10,10,10.20
2013,04,26,10,11,10.20
2013,04,26,10,12,10.30
2013,04,26,10,14,10.20
2013,04,26,10,15,10.20
2013,04,26,10,16,10.10
2013,04,26,10,17,10.10
2013,04,26,10,19,10.10
2013,04,26,10,20,10.10
2013,04,26,10,21,10.00
2013,04,26,10,22,10.00
2013,04,26,10,23,10.00
2013,04,26,10,24,10.00
2013,04,26,10,25,10.00
2013,04,26,10,26,10.00
2013,04,26,10,27,10.10
2013,04,26,10,28,10.10
2013,04,26,10,30,10.10
2013,04,26,10,31,10.10
2013,04,26,10,32,10.10
2013,04,26,10,33,10.10
2013,04,26,10,35,10.10
2013,04,26,10,36,10.10
2013,04,26,10,37,10.20
2013,04,26,10,38,10.20
2013,04,26,10,40,10.20
2013,04,26,10,41,10.20
2013,04,26,10,42,10.30
2013,04,26,10,43,10.40
2013,04,26,10,44,10.40
2013,04,26,10,45,10.50
2013,04,26,10,46,10.50
2013,04,26,10,47,10.50
2013,04,26,10,48,10.60
2013,04,26,10,49,10.60
2013,04,26,10,50,10.70
2013,04,26,10,51,10.70
2013,04,26,10,52,10.70
2013,04,26,10,53,10.70
2013,04,26,10,54,10.80
2013,04,26,10,55,10.80
2013,04,26,10,56,10.90
2013,04,26,10,57,10.90
2013,04,26,10,58,10.90
2013,04,26,10,59,10.90
2013,04,26,11,01,10.90
2013,04,26,11,02,10.70
2013,04,26,11,03,10.70
2013,04,26,11,04,10.60
2013,04,26,11,05,10.60
2013,04,26,11,06,10.40
2013,04,26,11,07,10.40
2013,04,26,11,08,10.40
2013,04,26,11,09,10.40
2013,04,26,11,11,10.40
2013,04,26,11,12,10.50
2013,04,26,11,13,10.60
2013,04,26,11,14,10.50
2013,04,26,11,16,10.60
2013,04,26,11,17,10.60
2013,04,26,11,18,10.60
2013,04,26,11,19,10.60
2013,04,26,11,21,10.70
2013,04,26,11,22,10.70
2013,04,26,11,23,10.80
2013,04,26,11,24,10.90
2013,04,26,11,25,10.90
2013,04,26,11,26,11.00
2013,04,26,11,27,11.10
2013,04,26,11,29,11.10
2013,04,26,11,31,11.10
2013,04,26,11,32,11.10
2013,04,26,11,33,11.10
2013,04,26,11,34,11.20
2013,04,26,11,36,11.20
2013,04,26,11,38,11.10
2013,04,26,11,40,11.00
2013,04,26,11,41,11.00
2013,04,26,11,42,11.00
2013,04,26,11,43,11.00
2013,04,26,11,44,11.00
2013,04,26,11,46,11.00
2013,04,26,11,47,10.90
2013,04,26,11,48,10.90
2013,04,26,11,49,10.90
2013,04,26,11,50,11.00
2013,04,26,11,52,11.10
2013,04,26,11,53,11.10
2013,04,26,11,54,11.20
2013,04,26,11,55,11.20
2013,04,26,11,57,11.20
2013,04,26,11,58,11.20
2013,04,26,11,59,11.10
2013,04,26,12,00,11.10
2013,04,26,12,02,11.10
2013,04,26,12,03,11.10
2013,04,26,12,04,11.10
2013,04,26,12,05,11.10
2013,04,26,12,06,11.20
2013,04,26,12,07,11.20
2013,04,26,12,08,11.30
2013,04,26,12,09,11.30
2013,04,26,12,10,11.30
2013,04,26,12,12,11.40
2013,04,26,12,13,11.30
2013,04,26,12,14,11.30
2013,04,26,12,16,11.40
2013,04,26,12,17,11.40
2013,04,26,12,18,11.50
2013,04,26,12,19,11.60
2013,04,26,12,21,11.60
2013,04,26,12,22,11.70
2013,04,26,12,24,11.80
2013,04,26,12,25,11.90
2013,04,26,12,26,11.90
2013,04,26,12,28,12.00
2013,04,26,12,29,12.00
2013,04,26,12,30,12.10
2013,04,26,12,31,12.10
2013,04,26,12,32,12.10
2013,04,26,12,33,12.10
2013,04,26,12,34,12.10
2013,04,26,12,35,12.10
2013,04,26,12,36,12.20
2013,04,26,12,38,12.30
2013,04,26,12,39,12.30
2013,04,26,12,40,12.40
2013,04,26,12,41,12.40
2013,04,26,12,42,12.40
2013,04,26,12,44,12.30
2013,04,26,12,45,12.30
2013,04,26,12,46,12.30
2013,04,26,12,47,12.30
2013,04,26,12,48,12.30
2013,04,26,12,50,12.30
2013,04,26,12,51,12.30
2013,04,26,12,52,12.40
2013,04,26,12,53,12.30
2013,04,26,12,54,12.40
2013,04,26,12,55,12.30
2013,04,26,12,56,12.30
2013,04,26,12,57,12.30
2013,04,26,12,58,12.20
2013,04,26,13,00,12.20
2013,04,26,13,01,12.10
2013,04,26,13,02,12.10
2013,04,26,13,03,12.10
2013,04,26,13,05,12.00
2013,04,26,13,06,11.90
2013,04,26,13,07,11.90
2013,04,26,13,09,11.90
2013,04,26,13,10,11.90
2013,04,26,13,11,11.90
2013,04,26,13,12,12.00
2013,04,26,13,14,12.10
2013,04,26,13,15,12.20
2013,04,26,13,16,12.20
2013,04,26,13,17,12.20
2013,04,26,13,19,12.20
2013,04,26,13,20,12.30
2013,04,26,13,21,12.30
2013,04,26,13,22,12.30
2013,04,26,13,24,12.30
2013,04,26,13,25,12.20
2013,04,26,13,26,12.20
2013,04,26,13,27,12.20
2013,04,26,13,29,12.30
2013,04,26,13,30,12.40
2013,04,26,13,31,12.50
2013,04,26,13,32,12.50
2013,04,26,13,34,12.40
2013,04,26,13,35,12.20
2013,04,26,13,36,12.20
2013,04,26,13,37,12.10
2013,04,26,13,39,12.00
2013,04,26,13,41,11.80
2013,04,26,13,42,11.80
2013,04,26,13,43,11.80
2013,04,26,13,44,11.80
2013,04,26,13,46,11.80
2013,04,26,13,47,11.90
2013,04,26,13,48,12.10
2013,04,26,13,49,12.20
2013,04,26,13,51,12.30
2013,04,26,13,52,12.40
2013,04,26,13,53,12.50
2013,04,26,13,54,12.60
2013,04,26,13,55,12.60
2013,04,26,13,57,12.50
2013,04,26,13,58,12.40
2013,04,26,13,59,12.30
2013,04,26,14,00,12.20
2013,04,26,14,02,12.20
2013,04,26,14,03,12.20
2013,04,26,14,04,12.20
2013,04,26,14,05,12.20
2013,04,26,14,07,12.20
2013,04,26,14,08,12.20
2013,04,26,14,09,12.20
2013,04,26,14,10,12.10
2013,04,26,14,12,12.10
2013,04,26,14,13,12.10
2013,04,26,14,14,12.20
2013,04,26,14,15,12.20
2013,04,26,14,17,12.20
2013,04,26,14,18,12.20
2013,04,26,14,19,12.20
2013,04,26,14,21,12.20
2013,04,26,14,22,12.20
2013,04,26,14,23,12.20
2013,04,26,14,24,12.30
2013,04,26,14,25,12.30
2013,04,26,14,26,12.30
2013,04,26,14,27,12.30
2013,04,26,14,28,12.40
2013,04,26,14,30,12.40
2013,04,26,14,31,12.40
2013,04,26,14,32,12.50
2013,04,26,14,33,12.60
2013,04,26,14,35,12.60
2013,04,26,14,36,12.80
2013,04,26,14,37,12.80
2013,04,26,14,38,12.70
2013,04,26,14,39,12.70
2013,04,26,14,40,12.60
2013,04,26,14,41,12.60
2013,04,26,14,42,12.60
2013,04,26,14,43,12.60
2013,04,26,14,45,12.60
2013,04,26,14,46,12.50
2013,04,26,14,47,12.50
2013,04,26,14,48,12.60
2013,04,26,14,50,12.60
2013,04,26,14,51,12.60
2013,04,26,14,52,12.70
2013,04,26,14,54,12.80
2013,04,26,14,55,12.90
2013,04,26,14,56,13.10
2013,04,26,14,57,13.20
2013,04,26,14,58,13.20
2013,04,26,14,59,13.30
2013,04,26,15,00,13.30
2013,04,26,15,01,13.30
2013,04,26,15,02,13.30
2013,04,26,15,04,13.30
2013,04,26,15,05,13.30
2013,04,26,15,06,13.30
2013,04,26,15,07,13.30
2013,04,26,15,09,13.30
2013,04,26,15,10,13.20
2013,04,26,15,11,13.10
2013,04,26,15,13,13.10
2013,04,26,15,14,13.10
2013,04,26,15,15,13.10
2013,04,26,15,16,13.10
2013,04,26,15,17,13.10
2013,04,26,15,18,13.10
2013,04,26,15,19,13.10
2013,04,26,15,20,13.20
2013,04,26,15,21,13.30
2013,04,26,15,22,13.40
2013,04,26,15,23,13.50
2013,04,26,15,24,13.60
2013,04,26,15,25,13.60
2013,04,26,15,26,13.70
2013,04,26,15,28,13.80
2013,04,26,15,29,13.80
2013,04,26,15,30,13.80
2013,04,26,15,31,13.90
2013,04,26,15,32,14.00
2013,04,26,15,33,14.10
2013,04,26,15,34,14.30
2013,04,26,15,35,14.40
2013,04,26,15,36,14.60
2013,04,26,15,38,14.60
2013,04,26,15,39,14.70
2013,04,26,15,40,14.80
2013,04,26,15,41,14.80
2013,04,26,15,43,14.90
2013,04,26,15,44,14.90
2013,04,26,15,45,14.80
2013,04,26,15,46,14.80
2013,04,26,15,47,14.70
2013,04,26,15,48,14.80
2013,04,26,15,49,14.80
2013,04,26,15,50,14.80
2013,04,26,15,51,14.90
2013,04,26,15,53,14.90
2013,04,26,15,54,15.00
2013,04,26,15,55,15.10
2013,04,26,15,57,15.20
2013,04,26,15,58,15.20
2013,04,26,15,59,15.20
2013,04,26,16,01,15.20
2013,04,26,16,03,15.10
2013,04,26,16,04,15.00
2013,04,26,16,06,14.90
2013,04,26,16,07,14.80
2013,04,26,16,08,14.80
2013,04,26,16,09,14.90
2013,04,26,16,10,14.90
2013,04,26,16,11,14.90
2013,04,26,16,12,14.90
2013,04,26,16,13,14.90
2013,04,26,16,14,14.80
2013,04,26,16,15,14.70
2013,04,26,16,16,14.60
2013,04,26,16,17,14.50
2013,04,26,16,18,14.40
2013,04,26,16,19,14.40
2013,04,26,16,20,14.40
2013,04,26,16,22,14.40
2013,04,26,16,23,14.40
2013,04,26,16,24,14.30
2013,04,26,16,26,14.30
2013,04,26,16,27,14.30
2013,04,26,16,28,14.30
2013,04,26,16,29,14.30
2013,04,26,16,31,14.20
2013,04,26,16,32,14.20
2013,04,26,16,33,14.10
2013,04,26,16,34,14.10
2013,04,26,16,35,14.00
2013,04,26,16,36,14.00
2013,04,26,16,37,14.00
2013,04,26,16,38,14.00
2013,04,26,16,39,14.00
2013,04,26,16,40,14.10
2013,04,26,16,42,14.10
2013,04,26,16,43,14.10
2013,04,26,16,44,14.10
2013,04,26,16,45,14.00
2013,04,26,16,46,14.00
2013,04,26,16,47,14.00
2013,04,26,16,48,14.00
2013,04,26,16,49,14.10
2013,04,26,16,50,14.10
2013,04,26,16,52,14.20
2013,04,26,16,53,14.20
2013,04,26,16,54,14.30
2013,04,26,16,56,14.30
2013,04,26,16,57,14.30
2013,04,26,16,58,14.30
2013,04,26,16,59,14.30
2013,04,26,17,01,14.30
2013,04,26,17,02,14.30
2013,04,26,17,03,14.20
2013,04,26,17,04,14.30
2013,04,26,17,06,14.30
2013,04,26,17,07,14.30
2013,04,26,17,08,14.30
2013,04,26,17,09,14.30
2013,04,26,17,11,14.40
2013,04,26,17,12,14.40
2013,04,26,17,13,14.30
2013,04,26,17,14,14.30
2013,04,26,17,16,14.20
2013,04,26,17,17,14.20
2013,04,26,17,18,14.20
2013,04,26,17,19,14.10
2013,04,26,17,20,14.10
2013,04,26,17,21,14.10
2013,04,26,17,22,14.00
2013,04,26,17,23,14.10
2013,04,26,17,24,14.00
2013,04,26,17,25,13.90
2013,04,26,17,26,13.90
2013,04,26,17,27,13.80
2013,04,26,17,28,13.80
2013,04,26,17,29,13.70
2013,04,26,17,30,13.70
2013,04,26,17,31,13.60
2013,04,26,17,32,13.50
2013,04,26,17,33,13.40
2013,04,26,17,34,13.40
2013,04,26,17,36,13.30
2013,04,26,17,37,13.30
2013,04,26,17,38,13.30
2013,04,26,17,39,13.20
2013,04,26,17,41,13.20
2013,04,26,17,42,13.30
2013,04,26,17,43,13.30
2013,04,26,17,44,13.30
2013,04,26,17,46,13.30
2013,04,26,17,47,13.30
2013,04,26,17,48,13.30
2013,04,26,17,50,13.20
2013,04,26,17,51,13.10
2013,04,26,17,52,13.10
2013,04,26,17,54,13.00
2013,04,26,17,55,12.90
2013,04,26,17,56,12.80
2013,04,26,17,57,12.80
2013,04,26,17,59,12.80
2013,04,26,18,00,12.80
2013,04,26,18,01,12.70
2013,04,26,18,03,12.60
2013,04,26,18,04,12.60
2013,04,26,18,05,12.60
2013,04,26,18,06,12.60
2013,04,26,18,07,12.50
2013,04,26,18,08,12.40
2013,04,26,18,09,12.40
2013,04,26,18,10,12.30
2013,04,26,18,12,12.30
2013,04,26,18,13,12.30
2013,04,26,18,14,12.30
2013,04,26,18,15,12.30
2013,04,26,18,16,12.30
2013,04,26,18,17,12.30
2013,04,26,18,18,12.30
2013,04,26,18,19,12.40
2013,04,26,18,20,12.40
2013,04,26,18,21,12.40
2013,04,26,18,22,12.40
2013,04,26,18,23,12.40
2013,04,26,18,24,12.40
2013,04,26,18,25,12.50
2013,04,26,18,27,12.50
2013,04,26,18,28,12.60
2013,04,26,18,29,12.70
2013,04,26,18,30,12.80
2013,04,26,18,32,12.80
2013,04,26,18,33,12.90
2013,04,26,18,34,12.90
2013,04,26,18,35,13.10
2013,04,26,18,37,13.10
2013,04,26,18,38,13.10
2013,04,26,18,39,13.20
2013,04,26,18,40,13.30
2013,04,26,18,41,13.30
2013,04,26,18,42,13.30
2013,04,26,18,43,13.40
2013,04,26,18,44,13.50
2013,04,26,18,45,13.60
2013,04,26,18,46,13.70
2013,04,26,18,48,13.70
2013,04,26,18,49,13.90
2013,04,26,18,50,13.90
2013,04,26,18,51,14.10
2013,04,26,18,53,14.10
2013,04,26,18,54,14.20
2013,04,26,18,55,14.20
2013,04,26,18,56,14.20
2013,04,26,18,57,14.20
2013,04,26,18,58,14.20
2013,04,26,18,59,14.20
2013,04,26,19,00,14.20
2013,04,26,19,01,14.20
2013,04,26,19,03,14.20
2013,04,26,19,04,14.30
2013,04,26,19,05,14.30
2013,04,26,19,07,14.30
2013,04,26,19,08,14.30
2013,04,26,19,09,14.30
2013,04,26,19,10,14.30
2013,04,26,19,12,14.40
2013,04,26,19,13,14.40
2013,04,26,19,14,14.40
2013,04,26,19,15,14.40
2013,04,26,19,16,14.40
2013,04,26,19,18,14.40
2013,04,26,19,19,14.40
2013,04,26,19,20,14.40
2013,04,26,19,21,14.40
2013,04,26,19,22,14.50
2013,04,26,19,24,14.60
2013,04,26,19,25,14.70
2013,04,26,19,26,14.70
2013,04,26,19,27,14.80
2013,04,26,19,28,14.80
2013,04,26,19,29,14.90
2013,04,26,19,30,15.10
2013,04,26,19,31,15.30
2013,04,26,19,33,15.60
2013,04,26,19,34,15.90
2013,04,26,19,35,16.10
2013,04,26,19,36,16.20
2013,04,26,19,38,16.30
2013,04,26,19,39,16.50
2013,04,26,19,40,16.60
2013,04,26,19,41,16.60
2013,04,26,19,42,16.60
2013,04,26,19,43,16.70
2013,04,26,19,44,16.70
2013,04,26,19,45,16.70
2013,04,26,19,46,16.70
2013,04,26,19,47,16.70
2013,04,26,19,48,16.70
2013,04,26,19,49,16.70
2013,04,26,19,50,16.70
2013,04,26,19,51,16.70
2013,04,26,19,53,16.70
2013,04,26,19,54,16.70
2013,04,26,19,55,16.70
2013,04,26,19,56,16.70
2013,04,26,19,57,16.60
2013,04,26,19,58,16.60
2013,04,26,19,59,16.60
2013,04,26,20,00,16.60
2013,04,26,20,01,16.60
2013,04,26,20,02,16.60
2013,04,26,20,03,16.60
2013,04,26,20,05,16.50
2013,04,26,20,06,16.50
2013,04,26,20,07,16.50
2013,04,26,20,08,16.50
2013,04,26,20,09,16.40
2013,04,26,20,10,16.40
2013,04,26,20,11,16.40
2013,04,26,20,12,16.40
2013,04,26,20,13,16.40
2013,04,26,20,14,16.40
2013,04,26,20,15,16.40
2013,04,26,20,16,16.40
2013,04,26,20,17,16.40
2013,04,26,20,18,16.40
2013,04,26,20,20,16.40
2013,04,26,20,21,16.40
2013,04,26,20,22,16.30
2013,04,26,20,23,16.30
2013,04,26,20,24,16.30
2013,04,26,20,26,16.30
2013,04,26,20,27,16.30
2013,04,26,20,28,16.30
2013,04,26,20,29,16.30
2013,04,26,20,31,16.30
2013,04,26,20,32,16.30
2013,04,26,20,34,16.30
2013,04,26,20,35,16.30
2013,04,26,20,36,16.30
2013,04,26,20,37,16.30
2013,04,26,20,39,16.30
2013,04,26,20,40,16.30
2013,04,26,20,41,16.30
2013,04,26,20,42,16.30
2013,04,26,20,44,16.20
2013,04,26,20,45,16.20
2013,04,26,20,46,16.20
2013,04,26,20,47,16.20
2013,04,26,20,49,16.20
2013,04,26,20,50,16.20
2013,04,26,20,51,16.20
2013,04,26,20,53,16.10
2013,04,26,20,54,16.10
2013,04,26,20,55,16.10